WGS F8 (USA 272)

Last updated on Sun Jun 21 2026 00:03:07 GMT+0000 (Coordinated Universal Time)

1 41879U 16075A 26171.16294767 .00000000 00000+0 00000+0 0 9995 2 41879 0.0419 50.3229 0000307 331.4530 95.0904 1.00268225 34858
UTC large
Height (km)
Speed (km/s)
/
Latitude / Longitude
Inclination (degrees)
Orbital Period (minutes)
Azimuth
Elevation
Range (km)
Doppler Factor

Next 0 passes for location: London (51.5072 / 0.1276)

No passes found over London.
WGS F8 (USA 272)